TimeCST,TemperatureF,Dew PointF,Humidity,Sea Level PressureIn,VisibilityMPH,Wind Direction,Wind SpeedMPH,Gust SpeedMPH,PrecipitationIn,Events,Conditions,WindDirDegrees,DateUTC
12:15 AM,46.8,32.0,57,30.17,10.0,South,11.5,-,N/A,,Clear,180,2012-11-30 06:15:00
12:35 AM,46.6,32.0,57,30.17,10.0,South,11.5,-,N/A,,Clear,170,2012-11-30 06:35:00
12:55 AM,46.2,32.0,58,30.16,10.0,South,10.4,-,N/A,,Clear,170,2012-11-30 06:55:00
1:15 AM,45.9,32.0,58,30.17,10.0,South,8.1,-,N/A,,Clear,180,2012-11-30 07:15:00
1:35 AM,44.8,31.8,60,30.18,10.0,South,4.6,-,N/A,,Clear,180,2012-11-30 07:35:00
1:55 AM,44.4,31.5,60,30.19,10.0,SE,4.6,-,N/A,,Clear,140,2012-11-30 07:55:00
2:15 AM,40.1,30.7,69,30.19,10.0,SSE,5.8,-,N/A,,Clear,150,2012-11-30 08:15:00
2:35 AM,42.1,31.5,66,30.19,10.0,SSE,6.9,-,N/A,,Clear,160,2012-11-30 08:35:00
2:55 AM,41.7,31.5,67,30.18,10.0,SSE,8.1,-,N/A,,Clear,160,2012-11-30 08:55:00
3:15 AM,41.2,31.5,68,30.18,10.0,SSE,6.9,-,N/A,,Clear,160,2012-11-30 09:15:00
3:35 AM,40.5,31.1,69,30.18,10.0,SSE,4.6,-,N/A,,Clear,160,2012-11-30 09:35:00
3:55 AM,41.0,30.9,67,30.17,10.0,SSE,4.6,-,N/A,,Clear,150,2012-11-30 09:55:00
4:15 AM,39.0,30.4,71,30.18,10.0,SSE,4.6,-,N/A,,Clear,160,2012-11-30 10:15:00
4:35 AM,41.9,30.2,63,30.18,10.0,SSE,4.6,-,N/A,,Clear,160,2012-11-30 10:35:00
4:55 AM,41.5,30.6,65,30.18,10.0,South,6.9,-,N/A,,Clear,170,2012-11-30 10:55:00
5:15 AM,41.0,30.4,66,30.18,10.0,South,5.8,-,N/A,,Clear,170,2012-11-30 11:15:00
5:35 AM,40.5,30.0,66,30.18,10.0,SSE,6.9,-,N/A,,Clear,160,2012-11-30 11:35:00
5:55 AM,38.7,30.2,72,30.17,10.0,SSE,6.9,-,N/A,,Clear,150,2012-11-30 11:55:00
6:15 AM,39.7,30.9,71,30.18,10.0,SSE,9.2,-,N/A,,Clear,160,2012-11-30 12:15:00
6:35 AM,41.0,31.5,69,30.18,10.0,South,8.1,-,N/A,,Clear,170,2012-11-30 12:35:00
6:55 AM,41.7,31.6,67,30.18,10.0,South,10.4,-,N/A,,Clear,170,2012-11-30 12:55:00
7:15 AM,42.3,32.0,67,30.18,10.0,South,9.2,-,N/A,,Clear,170,2012-11-30 13:15:00
7:35 AM,43.3,32.0,64,30.18,10.0,South,10.4,-,N/A,,Clear,170,2012-11-30 13:35:00
7:55 AM,45.5,33.1,62,30.17,10.0,South,13.8,-,N/A,,Clear,170,2012-11-30 13:55:00
8:15 AM,47.5,33.6,59,30.17,10.0,South,10.4,-,N/A,,Clear,180,2012-11-30 14:15:00
8:55 AM,51.3,34.7,53,30.17,10.0,South,16.1,23.0,N/A,,Scattered Clouds,190,2012-11-30 14:55:00
9:15 AM,52.2,34.9,52,30.19,10.0,SSW,15.0,-,N/A,,Scattered Clouds,200,2012-11-30 15:15:00
9:35 AM,52.3,35.4,53,30.19,10.0,SSW,15.0,20.7,N/A,,Mostly Cloudy,200,2012-11-30 15:35:00
9:55 AM,52.7,35.8,53,30.19,10.0,SSW,12.7,19.6,N/A,,Mostly Cloudy,200,2012-11-30 15:55:00
10:15 AM,54.7,35.6,49,30.18,10.0,SSW,17.3,-,N/A,,Scattered Clouds,210,2012-11-30 16:15:00
10:35 AM,55.4,36.1,48,30.17,10.0,SSW,16.1,-,N/A,,Clear,200,2012-11-30 16:35:00
10:55 AM,56.3,36.3,47,30.16,10.0,South,15.0,-,N/A,,Clear,190,2012-11-30 16:55:00
11:15 AM,57.7,37.6,47,30.16,10.0,South,10.4,-,N/A,,Clear,190,2012-11-30 17:15:00
11:35 AM,58.5,37.6,46,30.15,10.0,South,12.7,-,N/A,,Clear,180,2012-11-30 17:35:00
11:55 AM,59.0,37.9,46,30.15,10.0,South,11.5,-,N/A,,Clear,190,2012-11-30 17:55:00
12:15 PM,59.5,38.1,45,30.14,10.0,SSW,11.5,-,N/A,,Clear,200,2012-11-30 18:15:00
12:35 PM,60.3,39.4,46,30.13,10.0,South,11.5,-,N/A,,Clear,180,2012-11-30 18:35:00
12:55 PM,61.0,39.4,45,30.12,10.0,South,11.5,-,N/A,,Clear,180,2012-11-30 18:55:00
1:15 PM,61.7,39.7,44,30.12,10.0,SSW,10.4,-,N/A,,Clear,200,2012-11-30 19:15:00
1:35 PM,61.7,40.3,45,30.11,10.0,South,10.4,-,N/A,,Clear,170,2012-11-30 19:35:00
1:55 PM,61.7,40.1,45,30.11,10.0,South,11.5,-,N/A,,Clear,170,2012-11-30 19:55:00
2:15 PM,61.7,40.6,46,30.11,10.0,South,10.4,-,N/A,,Clear,170,2012-11-30 20:15:00
2:35 PM,61.7,40.8,46,30.11,10.0,South,11.5,-,N/A,,Clear,180,2012-11-30 20:35:00
2:55 PM,61.3,41.0,47,30.11,10.0,South,11.5,-,N/A,,Clear,190,2012-11-30 20:55:00
3:15 PM,60.8,41.2,48,30.12,10.0,South,9.2,-,N/A,,Clear,180,2012-11-30 21:15:00
3:35 PM,59.9,41.0,50,30.12,10.0,South,8.1,-,N/A,,Unknown,180,2012-11-30 21:35:00
3:55 PM,58.3,41.0,53,30.12,10.0,South,6.9,-,N/A,,Clear,180,2012-11-30 21:55:00
4:15 PM,55.8,40.6,57,30.13,10.0,SSE,6.9,-,N/A,,Clear,160,2012-11-30 22:15:00
4:35 PM,54.7,40.1,58,30.13,10.0,South,6.9,-,N/A,,Clear,170,2012-11-30 22:35:00
4:55 PM,52.9,39.6,61,30.13,10.0,SSE,4.6,-,N/A,,Clear,160,2012-11-30 22:55:00
5:15 PM,47.3,38.1,70,30.14,10.0,SE,3.5,-,N/A,,Clear,130,2012-11-30 23:15:00
5:35 PM,46.9,38.5,72,30.15,10.0,ESE,4.6,-,N/A,,Clear,120,2012-11-30 23:35:00
6:15 PM,46.4,38.3,73,30.16,10.0,SE,5.8,-,N/A,,Clear,140,2012-12-01 00:15:00
6:35 PM,47.5,39.0,72,30.16,10.0,SSE,6.9,-,N/A,,Clear,150,2012-12-01 00:35:00
6:55 PM,47.8,39.2,72,30.16,10.0,SSE,6.9,-,N/A,,Clear,150,2012-12-01 00:55:00
7:15 PM,46.2,38.7,75,30.16,10.0,SSE,4.6,-,N/A,,Clear,150,2012-12-01 01:15:00
7:35 PM,45.5,38.7,77,30.16,10.0,SE,3.5,-,N/A,,Clear,130,2012-12-01 01:35:00
7:55 PM,44.6,38.5,79,30.17,10.0,SE,3.5,-,N/A,,Clear,140,2012-12-01 01:55:00
8:15 PM,45.5,38.8,78,30.16,10.0,South,3.5,-,N/A,,Clear,180,2012-12-01 02:15:00
8:35 PM,44.1,38.3,80,30.16,10.0,South,4.6,-,N/A,,Clear,170,2012-12-01 02:35:00
8:55 PM,44.2,38.8,81,30.16,10.0,SSE,4.6,-,N/A,,Clear,160,2012-12-01 02:55:00
9:15 PM,42.8,37.6,82,30.16,10.0,Calm,Calm,-,N/A,,Clear,0,2012-12-01 03:15:00
9:35 PM,42.4,37.6,83,30.16,10.0,Calm,Calm,-,N/A,,Clear,0,2012-12-01 03:35:00
10:15 PM,40.8,37.0,86,30.16,10.0,SSE,4.6,-,N/A,,Clear,150,2012-12-01 04:15:00
10:35 PM,40.8,39.2,94,30.15,10.0,SSE,3.5,-,N/A,,Clear,150,2012-12-01 04:35:00
10:55 PM,41.2,38.1,89,30.16,10.0,Calm,Calm,-,N/A,,Clear,0,2012-12-01 04:55:00
11:15 PM,39.9,38.5,95,30.16,10.0,Calm,Calm,-,N/A,,Clear,0,2012-12-01 05:15:00
11:35 PM,42.6,39.7,90,30.16,10.0,Calm,Calm,-,N/A,,Clear,0,2012-12-01 05:35:00
11:55 PM,38.7,37.6,96,30.16,10.0,SSE,4.6,-,N/A,,Clear,150,2012-12-01 05:55:00